sat.trackr.live / text

‹ back to catalog

SHIYAN-25 (SY-25)

NORAD 57047 · 2023-087A

PAYLOAD ACTIVE UNKNOWN

§ Identity

Operator
Country
PRC
Launch date
2023-06-20
Launch site
TAISC
Launch vehicle
Mass (kg)
RCS (m²)

External: N2YO · Heavens-Above · Gunter

§ Orbital elements

Epoch: 2026-05-25T03:52:28.752096Z

Period
89.94 min
Inclination
96.7934°
Eccentricity
0.0008341
Mean motion
16.01019629 rev/d
Perigee alt
266.0 km
Apogee alt
277.1 km
Semi-major
6,649.7 km
B*
1.4215e-4
RAAN
207.1516°
Arg perigee
192.8411°
Mean anomaly
167.2658°
Rev number
17,111

§ Raw data

SHIYAN-25 (SY-25)1 57047U 23087A   26145.16144389  .00076039  43302-5  14215-3 0  99952 57047  96.7934 207.1516 0008341 192.8411 167.2658 16.01019629171118

JSON: /api/v1/satellites/57047 · /tle

For live sub-satellite position, see the globe view (requires WebGL).

§ Visibility from observer

Set your observer location to see the next 7 days of passes ≥ 10°. The values pass through the URL so the page stays shareable.

No JS? Fill the form by hand. The geolocation button needs JavaScript.